Location: Dehesa de la Cepeda
(40.6574°N, 4.3013°W)
Time: 07:35:09
(UTC+00:00)

Courier 1B Rocket - Pass Details

Date: 04 August 2021
Orbit: 920 x 1202 km, 28.3° (Epoch: 26 September)

Event Time Altitude Azimuth Distance (km) Brightness Sun altitude
Exits shadow 03:53:11 20° 220° (SW) 2,094 6.1 -14.4°
Maximum altitude 03:55:31 24° 191° (S) 1,868 6.1 -14.1°
Drops below altitude 10° 04:00:26 10° 140° (SE) 2,633 7.3 -13.3°
Sets 04:03:30 0° 126° (SE) 3,556 8.2 -12.9°
